Location: Morlupo
(42.1333°N, 12.5000°E)
Time: 16:31:55
(UTC+00:00)

Cosmos 1844 Rocket - Pass Details

Date: 18 September 2020
Orbit: 823 x 846 km, 71.0° (Epoch: 25 October)

Event Time Altitude Azimuth Distance (km) Brightness Sun altitude
Rises 19:37:27 0° 213° (SSW) 3,344 5.9 -26.3°
Reaches altitude 10° 19:39:54 10° 217° (SW) 2,416 5.1 -26.7°
Maximum altitude 19:45:22 60° 297° (WNW) 942 3.1 -27.6°
Drops below altitude 10° 19:50:53 10° 18° (NNE) 2,440 5.2 -28.5°
Sets 19:53:23 0° 22° (NNE) 3,381 6.0 -28.9°
